Time,TemperatureF,DewpointF,PressureIn,WindDirection,WindDirectionDegrees,WindSpeedMPH,WindSpeedGustMPH,Humidity,HourlyPrecipIn,Conditions,Clouds,dailyrainin,SoftwareType,DateUTC
2013-08-15 00:01:00,63.9,52.7,30.10,North,1,0.0,0.0,67,0.00,CLR,,0.00,WeatherDisplay:10.37,2013-08-15 05:01:00,
2013-08-15 00:06:00,63.9,52.7,30.10,North,1,0.0,0.0,67,0.00,CLR,,0.00,WeatherDisplay:10.37,2013-08-15 05:06:00,
2013-08-15 00:11:00,63.9,52.7,30.11,North,1,0.0,0.0,67,0.00,CLR,,0.00,WeatherDisplay:10.37,2013-08-15 05:11:00,
2013-08-15 00:16:00,63.9,52.7,30.10,North,1,0.0,0.0,67,0.00,CLR,,0.00,WeatherDisplay:10.37,2013-08-15 05:16:00,
2013-08-15 00:21:00,63.9,52.7,30.10,North,1,0.0,0.0,67,0.00,CLR,,0.00,WeatherDisplay:10.37,2013-08-15 05:21:00,
2013-08-15 00:26:00,63.9,52.7,30.10,North,1,0.0,0.0,67,0.00,CLR,,0.00,WeatherDisplay:10.37,2013-08-15 05:26:00,
2013-08-15 00:31:00,63.9,52.3,30.10,North,1,0.0,0.0,66,0.00,CLR,,0.00,WeatherDisplay:10.37,2013-08-15 05:31:00,
2013-08-15 00:36:00,63.9,52.3,30.10,North,1,0.0,0.0,66,0.00,CLR,,0.00,WeatherDisplay:10.37,2013-08-15 05:36:00,
2013-08-15 00:41:00,63.7,52.1,30.10,North,1,0.0,0.0,66,0.00,CLR,,0.00,WeatherDisplay:10.37,2013-08-15 05:41:00,
2013-08-15 00:46:00,63.7,52.1,30.10,North,1,0.0,0.0,66,0.00,CLR,,0.00,WeatherDisplay:10.37,2013-08-15 05:46:00,
2013-08-15 00:51:00,63.7,52.1,30.10,North,1,0.0,0.0,66,0.00,CLR,,0.00,WeatherDisplay:10.37,2013-08-15 05:51:00,
2013-08-15 00:56:00,63.7,52.1,30.10,North,1,0.0,0.0,66,0.00,CLR,,0.00,WeatherDisplay:10.37,2013-08-15 05:56:00,
2013-08-15 01:01:00,63.7,52.1,30.10,North,1,0.0,0.0,66,0.00,CLR,,0.00,WeatherDisplay:10.37,2013-08-15 06:01:00,
2013-08-15 01:06:00,63.7,52.5,30.10,North,1,0.0,0.0,67,0.00,CLR,,0.00,WeatherDisplay:10.37,2013-08-15 06:06:00,
2013-08-15 01:11:00,63.5,52.3,30.10,North,1,0.0,0.0,67,0.00,CLR,,0.00,WeatherDisplay:10.37,2013-08-15 06:11:00,
2013-08-15 01:16:00,63.3,52.2,30.10,North,1,0.0,0.0,67,0.00,CLR,,0.00,WeatherDisplay:10.37,2013-08-15 06:16:00,
2013-08-15 01:21:00,63.3,52.2,30.10,North,1,0.0,0.0,67,0.00,CLR,,0.00,WeatherDisplay:10.37,2013-08-15 06:21:00,
2013-08-15 01:26:00,63.3,52.6,30.09,North,1,0.0,0.0,68,0.00,CLR,,0.00,WeatherDisplay:10.37,2013-08-15 06:26:00,
2013-08-15 01:31:00,63.1,52.4,30.10,North,1,0.0,0.0,68,0.00,CLR,,0.00,WeatherDisplay:10.37,2013-08-15 06:31:00,
2013-08-15 01:36:00,63.0,52.2,30.10,North,1,0.0,0.0,68,0.00,CLR,,0.00,WeatherDisplay:10.37,2013-08-15 06:36:00,
2013-08-15 01:41:00,63.0,52.2,30.10,North,1,0.0,0.0,68,0.00,CLR,,0.00,WeatherDisplay:10.37,2013-08-15 06:41:00,
2013-08-15 01:46:00,63.0,52.2,30.10,North,1,0.0,0.0,68,0.00,CLR,,0.00,WeatherDisplay:10.37,2013-08-15 06:46:00,
2013-08-15 01:51:00,63.0,52.6,30.10,North,1,0.0,0.0,69,0.00,CLR,,0.00,WeatherDisplay:10.37,2013-08-15 06:51:00,
2013-08-15 01:56:00,62.8,52.5,30.10,North,1,0.0,0.0,69,0.00,CLR,,0.00,WeatherDisplay:10.37,2013-08-15 06:56:00,
2013-08-15 02:01:00,62.8,52.5,30.10,North,1,0.0,0.0,69,0.00,CLR,,0.00,WeatherDisplay:10.37,2013-08-15 07:01:00,
2013-08-15 02:06:00,62.8,52.5,30.10,North,1,0.0,0.0,69,0.00,CLR,,0.00,WeatherDisplay:10.37,2013-08-15 07:06:00,
2013-08-15 02:11:00,62.8,52.5,30.10,North,1,0.0,0.0,69,0.00,CLR,,0.00,WeatherDisplay:10.37,2013-08-15 07:11:00,
2013-08-15 02:16:00,62.4,52.1,30.10,North,1,0.0,0.0,69,0.00,CLR,,0.00,WeatherDisplay:10.37,2013-08-15 07:16:00,
2013-08-15 02:21:00,62.4,52.1,30.10,North,1,0.0,0.0,69,0.00,CLR,,0.00,WeatherDisplay:10.37,2013-08-15 07:21:00,
2013-08-15 02:26:00,62.4,52.5,30.10,North,1,0.0,0.0,70,0.00,CLR,,0.00,WeatherDisplay:10.37,2013-08-15 07:26:00,
2013-08-15 02:31:00,62.4,52.5,30.10,North,1,0.0,0.0,70,0.00,CLR,,0.00,WeatherDisplay:10.37,2013-08-15 07:31:00,
2013-08-15 02:36:00,62.4,52.5,30.10,North,1,0.0,0.0,70,0.00,CLR,,0.00,WeatherDisplay:10.37,2013-08-15 07:36:00,
2013-08-15 02:41:00,62.2,52.3,30.10,North,1,0.0,0.0,70,0.00,CLR,,0.00,WeatherDisplay:10.37,2013-08-15 07:41:00,
2013-08-15 02:46:00,62.2,52.3,30.10,North,1,0.0,0.0,70,0.00,CLR,,0.00,WeatherDisplay:10.37,2013-08-15 07:46:00,
2013-08-15 02:51:00,62.1,52.2,30.10,North,1,0.0,0.0,70,0.00,CLR,,0.00,WeatherDisplay:10.37,2013-08-15 07:51:00,
2013-08-15 02:56:00,62.1,52.2,30.10,North,1,0.0,0.0,70,0.00,CLR,,0.00,WeatherDisplay:10.37,2013-08-15 07:56:00,
2013-08-15 03:01:00,62.1,52.2,30.10,North,1,0.0,0.0,70,0.00,CLR,,0.00,WeatherDisplay:10.37,2013-08-15 08:01:00,
2013-08-15 03:06:00,62.1,52.2,30.10,North,1,0.0,0.0,70,0.00,CLR,,0.00,WeatherDisplay:10.37,2013-08-15 08:06:00,
2013-08-15 03:11:00,62.1,52.5,30.10,North,1,0.0,0.0,71,0.00,CLR,,0.00,WeatherDisplay:10.37,2013-08-15 08:11:00,
2013-08-15 03:16:00,62.1,52.5,30.10,North,1,0.0,0.0,71,0.00,CLR,,0.00,WeatherDisplay:10.37,2013-08-15 08:16:00,
2013-08-15 03:21:00,62.1,52.5,30.10,North,1,0.0,0.0,71,0.00,CLR,,0.00,WeatherDisplay:10.37,2013-08-15 08:21:00,
2013-08-15 03:26:00,61.9,52.4,30.10,North,1,0.0,0.0,71,0.00,CLR,,0.00,WeatherDisplay:10.37,2013-08-15 08:26:00,
2013-08-15 03:31:00,61.9,52.4,30.10,North,1,0.0,0.0,71,0.00,CLR,,0.00,WeatherDisplay:10.37,2013-08-15 08:31:00,
2013-08-15 03:36:00,61.9,52.4,30.10,North,1,0.0,0.0,71,0.00,CLR,,0.00,WeatherDisplay:10.37,2013-08-15 08:36:00,
2013-08-15 03:41:00,61.9,52.4,30.09,North,1,0.0,0.0,71,0.00,CLR,,0.00,WeatherDisplay:10.37,2013-08-15 08:41:00,
2013-08-15 03:46:00,61.7,52.6,30.09,North,1,0.0,0.0,72,0.00,CLR,,0.00,WeatherDisplay:10.37,2013-08-15 08:46:00,
2013-08-15 03:51:00,61.7,52.6,30.09,North,1,0.0,0.0,72,0.00,CLR,,0.00,WeatherDisplay:10.37,2013-08-15 08:51:00,
2013-08-15 03:56:00,61.5,52.4,30.09,North,1,0.0,0.0,72,0.00,CLR,,0.00,WeatherDisplay:10.37,2013-08-15 08:56:00,
2013-08-15 04:01:00,61.5,52.4,30.09,North,1,0.0,0.0,72,0.00,CLR,,0.00,WeatherDisplay:10.37,2013-08-15 09:01:00,
2013-08-15 04:06:00,61.5,52.4,30.10,North,1,0.0,0.0,72,0.00,CLR,,0.00,WeatherDisplay:10.37,2013-08-15 09:06:00,
2013-08-15 04:11:00,61.5,52.4,30.10,North,1,0.0,0.0,72,0.00,CLR,,0.00,WeatherDisplay:10.37,2013-08-15 09:11:00,
2013-08-15 04:16:00,61.3,52.2,30.10,North,1,0.0,0.0,72,0.00,CLR,,0.00,WeatherDisplay:10.37,2013-08-15 09:16:00,
2013-08-15 04:21:00,61.3,52.6,30.09,North,1,0.0,0.0,73,0.00,CLR,,0.00,WeatherDisplay:10.37,2013-08-15 09:21:00,
2013-08-15 04:26:00,61.2,52.4,30.09,North,1,0.0,0.0,73,0.00,CLR,,0.00,WeatherDisplay:10.37,2013-08-15 09:26:00,
2013-08-15 04:31:00,61.2,52.4,30.09,North,1,0.0,0.0,73,0.00,CLR,,0.00,WeatherDisplay:10.37,2013-08-15 09:31:00,
2013-08-15 04:36:00,61.2,52.4,30.09,North,1,0.0,0.0,73,0.00,CLR,,0.00,WeatherDisplay:10.37,2013-08-15 09:36:00,
2013-08-15 04:41:00,61.2,52.4,30.09,North,1,0.0,0.0,73,0.00,CLR,,0.00,WeatherDisplay:10.37,2013-08-15 09:41:00,
2013-08-15 04:46:00,61.2,52.4,30.09,North,1,0.0,0.0,73,0.00,CLR,,0.00,WeatherDisplay:10.37,2013-08-15 09:46:00,
2013-08-15 04:51:00,61.2,52.4,30.08,North,1,0.0,0.0,73,0.00,CLR,,0.00,WeatherDisplay:10.37,2013-08-15 09:51:00,
2013-08-15 04:56:00,61.2,52.4,30.08,North,1,0.0,0.0,73,0.00,CLR,,0.00,WeatherDisplay:10.37,2013-08-15 09:56:00,
2013-08-15 05:01:00,61.2,52.4,30.09,North,1,0.0,0.0,73,0.00,CLR,,0.00,WeatherDisplay:10.37,2013-08-15 10:01:00,
2013-08-15 05:06:00,61.2,52.4,30.09,North,1,0.0,0.0,73,0.00,CLR,,0.00,WeatherDisplay:10.37,2013-08-15 10:06:00,
2013-08-15 05:11:00,61.0,52.6,30.09,North,1,0.0,0.0,74,0.00,CLR,,0.00,WeatherDisplay:10.37,2013-08-15 10:11:00,
2013-08-15 05:16:00,61.0,52.6,30.09,North,1,0.0,0.0,74,0.00,CLR,,0.00,WeatherDisplay:10.37,2013-08-15 10:16:00,
2013-08-15 05:21:00,61.0,52.6,30.09,North,1,0.0,0.0,74,0.00,CLR,,0.00,WeatherDisplay:10.37,2013-08-15 10:21:00,
2013-08-15 05:26:00,61.0,52.6,30.09,North,1,0.0,0.0,74,0.00,CLR,,0.00,WeatherDisplay:10.37,2013-08-15 10:26:00,
2013-08-15 05:31:00,61.0,52.6,30.09,North,1,0.0,0.0,74,0.00,CLR,,0.00,WeatherDisplay:10.37,2013-08-15 10:31:00,
2013-08-15 05:36:00,61.0,52.6,30.09,North,1,0.0,0.0,74,0.00,CLR,,0.00,WeatherDisplay:10.37,2013-08-15 10:36:00,
2013-08-15 05:41:00,61.0,52.6,30.09,North,1,0.0,0.0,74,0.00,CLR,,0.00,WeatherDisplay:10.37,2013-08-15 10:41:00,
2013-08-15 05:46:00,61.0,52.6,30.09,North,1,0.0,0.0,74,0.00,CLR,,0.00,WeatherDisplay:10.37,2013-08-15 10:46:00,
2013-08-15 05:51:00,61.0,52.6,30.09,North,1,0.0,0.0,74,0.00,CLR,,0.00,WeatherDisplay:10.37,2013-08-15 10:51:00,
2013-08-15 05:56:00,61.0,52.6,30.09,North,1,0.0,0.0,74,0.00,CLR,,0.00,WeatherDisplay:10.37,2013-08-15 10:56:00,
2013-08-15 06:01:00,61.0,52.6,30.09,North,1,0.0,0.0,74,0.00,CLR,,0.00,WeatherDisplay:10.37,2013-08-15 11:01:00,
2013-08-15 06:06:00,61.0,52.6,30.09,North,1,0.0,0.0,74,0.00,CLR,,0.00,WeatherDisplay:10.37,2013-08-15 11:06:00,
2013-08-15 06:11:00,61.0,52.6,30.09,North,1,0.0,0.0,74,0.00,CLR,,0.00,WeatherDisplay:10.37,2013-08-15 11:11:00,
2013-08-15 06:16:00,61.0,52.6,30.09,North,1,0.0,0.0,74,0.00,CLR,,0.00,WeatherDisplay:10.37,2013-08-15 11:16:00,
2013-08-15 06:21:00,61.0,52.6,30.09,North,1,0.0,0.0,74,0.00,CLR,,0.00,WeatherDisplay:10.37,2013-08-15 11:21:00,
2013-08-15 06:26:00,61.2,52.8,30.09,North,1,0.0,0.0,74,0.00,CLR,,0.00,WeatherDisplay:10.37,2013-08-15 11:26:00,
2013-08-15 06:31:00,61.2,52.8,30.10,North,1,0.0,0.0,74,0.00,CLR,,0.00,WeatherDisplay:10.37,2013-08-15 11:31:00,
2013-08-15 06:36:00,61.0,52.6,30.10,North,1,0.0,0.0,74,0.00,CLR,,0.00,WeatherDisplay:10.37,2013-08-15 11:36:00,
2013-08-15 06:41:00,61.0,52.6,30.09,North,1,0.0,0.0,74,0.00,CLR,,0.00,WeatherDisplay:10.37,2013-08-15 11:41:00,
2013-08-15 06:46:00,61.0,52.6,30.10,North,1,0.0,0.0,74,0.00,CLR,,0.00,WeatherDisplay:10.37,2013-08-15 11:46:00,
2013-08-15 06:51:00,61.0,52.6,30.09,North,1,0.0,0.0,74,0.00,CLR,,0.00,WeatherDisplay:10.37,2013-08-15 11:51:00,
2013-08-15 06:56:00,61.0,52.6,30.09,North,1,0.0,0.0,74,0.00,CLR,,0.00,WeatherDisplay:10.37,2013-08-15 11:56:00,
2013-08-15 07:01:00,61.0,52.6,30.09,North,1,0.0,0.0,74,0.00,CLR,,0.00,WeatherDisplay:10.37,2013-08-15 12:01:00,
2013-08-15 07:06:00,61.0,52.6,30.10,North,1,0.0,0.0,74,0.00,CLR,,0.00,WeatherDisplay:10.37,2013-08-15 12:06:00,
2013-08-15 07:11:00,60.8,52.5,30.09,North,1,0.0,0.0,74,0.00,CLR,,0.00,WeatherDisplay:10.37,2013-08-15 12:11:00,
2013-08-15 07:16:00,60.8,52.8,30.09,North,1,0.0,0.0,75,0.00,CLR,,0.00,WeatherDisplay:10.37,2013-08-15 12:16:00,
2013-08-15 07:21:00,60.6,52.6,30.09,North,1,0.0,0.0,75,0.00,CLR,,0.00,WeatherDisplay:10.37,2013-08-15 12:21:00,
2013-08-15 07:26:00,60.6,52.6,30.09,North,1,0.0,0.0,75,0.00,CLR,,0.00,WeatherDisplay:10.37,2013-08-15 12:26:00,
2013-08-15 07:31:00,60.6,52.6,30.09,North,1,0.0,0.0,75,0.00,CLR,,0.00,WeatherDisplay:10.37,2013-08-15 12:31:00,
2013-08-15 07:36:00,60.6,52.6,30.09,North,1,0.0,0.0,75,0.00,CLR,,0.00,WeatherDisplay:10.37,2013-08-15 12:36:00,
2013-08-15 07:41:00,60.6,52.6,30.09,North,1,0.0,0.0,75,0.00,CLR,,0.00,WeatherDisplay:10.37,2013-08-15 12:41:00,
2013-08-15 07:46:00,60.6,52.6,30.09,North,1,0.0,0.0,75,0.00,CLR,,0.00,WeatherDisplay:10.37,2013-08-15 12:46:00,
2013-08-15 07:51:00,60.8,52.8,30.09,North,1,0.0,0.0,75,0.00,CLR,,0.00,WeatherDisplay:10.37,2013-08-15 12:51:00,
2013-08-15 07:56:00,60.8,52.8,30.09,North,1,0.0,0.0,75,0.00,CLR,,0.00,WeatherDisplay:10.37,2013-08-15 12:56:00,
2013-08-15 08:01:00,61.0,53.0,30.09,North,1,0.0,0.0,75,0.00,CLR,,0.00,WeatherDisplay:10.37,2013-08-15 13:01:00,
2013-08-15 08:06:00,61.0,53.0,30.09,North,1,0.0,0.0,75,0.00,CLR,,0.00,WeatherDisplay:10.37,2013-08-15 13:06:00,
2013-08-15 08:11:00,61.2,53.2,30.09,North,1,0.0,0.0,75,0.00,CLR,,0.00,WeatherDisplay:10.37,2013-08-15 13:11:00,
2013-08-15 08:16:00,61.2,53.2,30.09,North,1,0.0,0.0,75,0.00,CLR,,0.00,WeatherDisplay:10.37,2013-08-15 13:16:00,
2013-08-15 08:21:00,61.5,53.2,30.09,North,1,0.0,0.0,74,0.00,CLR,,0.00,WeatherDisplay:10.37,2013-08-15 13:21:00,
2013-08-15 08:26:00,61.9,53.5,30.10,North,1,0.0,0.0,74,0.00,CLR,,0.00,WeatherDisplay:10.37,2013-08-15 13:26:00,
2013-08-15 08:31:00,62.1,53.7,30.10,North,1,0.0,0.0,74,0.00,CLR,,0.00,WeatherDisplay:10.37,2013-08-15 13:31:00,
2013-08-15 08:36:00,62.2,53.5,30.10,North,1,0.0,0.0,73,0.00,CLR,,0.00,WeatherDisplay:10.37,2013-08-15 13:36:00,
2013-08-15 08:41:00,62.8,54.0,30.10,North,1,0.0,0.0,73,0.00,CLR,,0.00,WeatherDisplay:10.37,2013-08-15 13:41:00,
2013-08-15 08:46:00,63.0,54.2,30.10,North,1,0.0,0.0,73,0.00,CLR,,0.00,WeatherDisplay:10.37,2013-08-15 13:46:00,
2013-08-15 08:51:00,63.3,54.1,30.10,North,1,0.0,0.0,72,0.00,CLR,,0.00,WeatherDisplay:10.37,2013-08-15 13:51:00,
2013-08-15 08:56:00,63.5,54.3,30.10,North,1,0.0,0.0,72,0.00,CLR,,0.00,WeatherDisplay:10.37,2013-08-15 13:56:00,
2013-08-15 09:01:00,63.9,54.3,30.09,North,1,0.0,0.0,71,0.00,CLR,,0.00,WeatherDisplay:10.37,2013-08-15 14:01:00,
2013-08-15 09:06:00,64.8,55.1,30.09,North,1,0.0,0.0,71,0.00,CLR,,0.00,WeatherDisplay:10.37,2013-08-15 14:06:00,
2013-08-15 09:11:00,65.1,55.1,30.10,North,1,0.0,0.0,70,0.00,CLR,,0.00,WeatherDisplay:10.37,2013-08-15 14:11:00,
2013-08-15 09:16:00,65.3,55.3,30.10,North,1,0.0,0.0,70,0.00,CLR,,0.00,WeatherDisplay:10.37,2013-08-15 14:16:00,
2013-08-15 09:21:00,65.5,55.0,30.10,North,1,0.0,0.0,69,0.00,CLR,,0.00,WeatherDisplay:10.37,2013-08-15 14:21:00,
2013-08-15 09:26:00,65.3,54.9,30.09,North,1,0.0,0.0,69,0.00,CLR,,0.00,WeatherDisplay:10.37,2013-08-15 14:26:00,
2013-08-15 09:31:00,65.3,54.9,30.09,North,1,0.0,0.0,69,0.00,CLR,,0.00,WeatherDisplay:10.37,2013-08-15 14:31:00,
2013-08-15 09:36:00,65.1,54.7,30.09,North,1,0.0,0.0,69,0.00,CLR,,0.00,WeatherDisplay:10.37,2013-08-15 14:36:00,
2013-08-15 09:41:00,65.1,54.7,30.09,North,1,0.0,0.0,69,0.00,CLR,,0.00,WeatherDisplay:10.37,2013-08-15 14:41:00,
2013-08-15 09:46:00,65.3,54.9,30.09,North,1,0.0,0.0,69,0.00,CLR,,0.00,WeatherDisplay:10.37,2013-08-15 14:46:00,
2013-08-15 09:52:00,65.3,54.9,30.10,North,1,0.0,0.0,69,0.00,CLR,,0.00,WeatherDisplay:10.37,2013-08-15 14:52:00,
2013-08-15 09:57:00,65.3,54.9,30.09,North,1,0.0,0.0,69,0.00,CLR,,0.00,WeatherDisplay:10.37,2013-08-15 14:57:00,
2013-08-15 10:03:00,65.3,55.3,30.10,North,1,0.0,0.0,70,0.00,CLR,,0.00,WeatherDisplay:10.37,2013-08-15 15:03:00,
2013-08-15 10:08:00,65.5,55.4,30.10,North,1,0.0,0.0,70,0.00,CLR,,0.00,WeatherDisplay:10.37,2013-08-15 15:08:00,
2013-08-15 10:13:00,65.5,55.4,30.10,North,1,0.0,0.0,70,0.00,CLR,,0.00,WeatherDisplay:10.37,2013-08-15 15:13:00,
2013-08-15 10:18:00,65.5,55.0,30.10,North,1,0.0,0.0,69,0.00,CLR,,0.00,WeatherDisplay:10.37,2013-08-15 15:18:00,
2013-08-15 10:23:00,65.5,55.0,30.10,North,1,0.0,0.0,69,0.00,CLR,,0.00,WeatherDisplay:10.37,2013-08-15 15:23:00,
2013-08-15 10:28:00,65.5,54.6,30.11,North,1,0.0,0.0,68,0.00,CLR,,0.00,WeatherDisplay:10.37,2013-08-15 15:28:00,
2013-08-15 10:33:00,65.5,54.6,30.10,North,1,0.0,0.0,68,0.00,CLR,,0.00,WeatherDisplay:10.37,2013-08-15 15:33:00,
2013-08-15 10:38:00,65.5,54.6,30.10,North,1,0.0,0.0,68,0.00,CLR,,0.00,WeatherDisplay:10.37,2013-08-15 15:38:00,
2013-08-15 10:43:00,65.5,55.0,30.10,North,1,0.0,0.0,69,0.00,CLR,,0.00,WeatherDisplay:10.37,2013-08-15 15:43:00,
2013-08-15 10:48:00,65.5,55.0,30.10,North,1,0.0,0.0,69,0.00,CLR,,0.00,WeatherDisplay:10.37,2013-08-15 15:48:00,
2013-08-15 10:53:00,65.5,55.0,30.10,North,1,0.0,0.0,69,0.00,CLR,,0.00,WeatherDisplay:10.37,2013-08-15 15:53:00,
2013-08-15 10:58:00,65.5,55.0,30.10,North,1,0.0,0.0,69,0.00,CLR,,0.00,WeatherDisplay:10.37,2013-08-15 15:58:00,
2013-08-15 11:04:00,65.7,55.2,30.10,North,1,0.0,0.0,69,0.00,CLR,,0.00,WeatherDisplay:10.37,2013-08-15 16:04:00,
2013-08-15 11:09:00,65.7,55.2,30.09,North,1,0.0,0.0,69,0.00,CLR,,0.00,WeatherDisplay:10.37,2013-08-15 16:09:00,
2013-08-15 11:14:00,66.4,55.9,30.10,North,1,0.0,0.0,69,0.00,CLR,,0.00,WeatherDisplay:10.37,2013-08-15 16:14:00,
2013-08-15 11:19:00,66.6,55.7,30.09,North,1,0.0,0.0,68,0.00,CLR,,0.00,WeatherDisplay:10.37,2013-08-15 16:19:00,
2013-08-15 11:25:00,67.3,56.4,30.09,North,1,0.0,0.0,68,0.00,CLR,,0.00,WeatherDisplay:10.37,2013-08-15 16:25:00,
2013-08-15 11:30:00,67.3,55.5,30.09,North,1,0.0,0.0,66,0.00,CLR,,0.00,WeatherDisplay:10.37,2013-08-15 16:30:00,
2013-08-15 11:35:00,68.4,56.6,30.09,North,1,0.0,0.0,66,0.00,CLR,,0.00,WeatherDisplay:10.37,2013-08-15 16:35:00,
2013-08-15 11:40:00,68.9,57.1,30.09,North,1,0.0,0.0,66,0.00,CLR,,0.00,WeatherDisplay:10.37,2013-08-15 16:40:00,
2013-08-15 11:45:00,69.6,57.3,30.09,North,1,0.0,0.0,65,0.00,CLR,,0.00,WeatherDisplay:10.37,2013-08-15 16:45:00,
2013-08-15 11:50:00,69.8,57.1,30.09,North,1,0.0,0.0,64,0.00,CLR,,0.00,WeatherDisplay:10.37,2013-08-15 16:50:00,
2013-08-15 11:55:00,70.2,57.4,30.09,North,1,0.0,0.0,64,0.00,CLR,,0.00,WeatherDisplay:10.37,2013-08-15 16:55:00,
2013-08-15 12:00:00,70.7,57.0,30.09,North,1,0.0,0.0,62,0.00,CLR,,0.00,WeatherDisplay:10.37,2013-08-15 17:00:00,
2013-08-15 12:05:00,70.9,57.2,30.09,North,1,0.0,0.0,62,0.00,CLR,,0.00,WeatherDisplay:10.37,2013-08-15 17:05:00,
2013-08-15 12:10:00,70.9,56.8,30.09,North,1,0.0,0.0,61,0.00,CLR,,0.00,WeatherDisplay:10.37,2013-08-15 17:10:00,
2013-08-15 12:15:00,71.1,57.4,30.09,North,1,0.0,0.0,62,0.00,CLR,,0.00,WeatherDisplay:10.37,2013-08-15 17:15:00,
2013-08-15 12:20:00,71.2,57.1,30.09,North,1,0.0,0.0,61,0.00,CLR,,0.00,WeatherDisplay:10.37,2013-08-15 17:20:00,
2013-08-15 12:25:00,72.5,57.8,30.09,North,1,0.0,0.0,60,0.00,CLR,,0.00,WeatherDisplay:10.37,2013-08-15 17:25:00,
2013-08-15 12:31:00,73.2,58.5,30.09,North,1,0.0,0.0,60,0.00,CLR,,0.00,WeatherDisplay:10.37,2013-08-15 17:31:00,
2013-08-15 12:36:00,74.1,58.9,30.09,North,1,0.0,0.0,59,0.00,CLR,,0.00,WeatherDisplay:10.37,2013-08-15 17:36:00,
2013-08-15 12:41:00,74.7,58.9,30.09,North,1,0.0,0.0,58,0.00,CLR,,0.00,WeatherDisplay:10.37,2013-08-15 17:41:00,
2013-08-15 12:46:00,74.8,58.6,30.09,North,1,0.0,0.0,57,0.00,CLR,,0.00,WeatherDisplay:10.37,2013-08-15 17:46:00,
2013-08-15 12:51:00,75.0,58.3,30.09,North,1,0.0,0.0,56,0.00,CLR,,0.00,WeatherDisplay:10.37,2013-08-15 17:51:00,
2013-08-15 12:56:00,75.9,59.6,30.08,North,1,0.0,0.0,57,0.00,CLR,,0.00,WeatherDisplay:10.37,2013-08-15 17:56:00,
2013-08-15 13:01:00,76.3,58.9,30.08,North,1,0.0,0.0,55,0.00,CLR,,0.00,WeatherDisplay:10.37,2013-08-15 18:01:00,
2013-08-15 13:06:00,76.3,58.4,30.08,North,1,0.0,0.0,54,0.00,CLR,,0.00,WeatherDisplay:10.37,2013-08-15 18:06:00,
2013-08-15 13:11:00,76.5,58.1,30.08,North,1,0.0,0.0,53,0.00,CLR,,0.00,WeatherDisplay:10.37,2013-08-15 18:11:00,
2013-08-15 13:16:00,77.0,58.6,30.08,North,1,0.0,0.0,53,0.00,CLR,,0.00,WeatherDisplay:10.37,2013-08-15 18:16:00,
2013-08-15 13:21:00,77.2,57.7,30.08,North,1,0.0,0.0,51,0.00,CLR,,0.00,WeatherDisplay:10.37,2013-08-15 18:21:00,
2013-08-15 13:27:00,77.4,57.8,30.08,North,1,0.0,0.0,51,0.00,CLR,,0.00,WeatherDisplay:10.37,2013-08-15 18:27:00,
2013-08-15 13:32:00,77.9,58.3,30.08,North,1,0.0,0.0,51,0.00,CLR,,0.00,WeatherDisplay:10.37,2013-08-15 18:32:00,
2013-08-15 13:37:00,78.1,58.5,30.08,North,1,0.0,0.0,51,0.00,CLR,,0.00,WeatherDisplay:10.37,2013-08-15 18:37:00,
2013-08-15 13:42:00,78.3,58.6,30.08,North,1,0.0,0.0,51,0.00,CLR,,0.00,WeatherDisplay:10.37,2013-08-15 18:42:00,
2013-08-15 13:47:00,79.0,59.3,30.08,North,1,0.0,0.0,51,0.00,CLR,,0.00,WeatherDisplay:10.37,2013-08-15 18:47:00,
2013-08-15 13:52:00,79.0,58.8,30.08,North,1,0.0,0.0,50,0.00,CLR,,0.00,WeatherDisplay:10.37,2013-08-15 18:52:00,
2013-08-15 13:57:00,79.9,58.4,30.07,North,1,0.0,0.0,48,0.00,CLR,,0.00,WeatherDisplay:10.37,2013-08-15 18:57:00,
2013-08-15 14:02:00,79.9,58.4,30.07,North,1,0.0,0.0,48,0.00,CLR,,0.00,WeatherDisplay:10.37,2013-08-15 19:02:00,
2013-08-15 14:07:00,79.3,58.5,30.07,North,1,0.0,0.0,49,0.00,CLR,,0.00,WeatherDisplay:10.37,2013-08-15 19:07:00,
2013-08-15 14:13:00,78.8,58.6,30.07,North,1,0.0,0.0,50,0.00,CLR,,0.00,WeatherDisplay:10.37,2013-08-15 19:13:00,
2013-08-15 14:18:00,78.6,57.9,30.07,North,1,0.0,0.0,49,0.00,CLR,,0.00,WeatherDisplay:10.37,2013-08-15 19:18:00,
2013-08-15 14:24:00,77.9,57.8,30.07,North,1,0.0,0.0,50,0.00,CLR,,0.00,WeatherDisplay:10.37,2013-08-15 19:24:00,
2013-08-15 14:29:00,77.4,57.3,30.06,North,1,0.0,0.0,50,0.00,CLR,,0.00,WeatherDisplay:10.37,2013-08-15 19:29:00,
2013-08-15 14:34:00,76.5,57.0,30.06,North,1,0.0,0.0,51,0.00,CLR,,0.00,WeatherDisplay:10.37,2013-08-15 19:34:00,
2013-08-15 14:39:00,76.1,56.7,30.06,North,1,0.0,0.0,51,0.00,CLR,,0.00,WeatherDisplay:10.37,2013-08-15 19:39:00,
2013-08-15 14:44:00,75.9,57.0,30.07,North,1,0.0,0.0,52,0.00,CLR,,0.00,WeatherDisplay:10.37,2013-08-15 19:44:00,
2013-08-15 14:49:00,75.9,57.6,30.07,North,1,0.0,0.0,53,0.00,CLR,,0.00,WeatherDisplay:10.37,2013-08-15 19:49:00,
2013-08-15 14:54:00,75.6,57.2,30.07,North,1,0.0,0.0,53,0.00,CLR,,0.00,WeatherDisplay:10.37,2013-08-15 19:54:00,
2013-08-15 15:00:00,75.7,57.4,30.07,North,1,0.0,0.0,53,0.00,CLR,,0.00,WeatherDisplay:10.37,2013-08-15 20:00:00,
2013-08-15 15:06:00,75.9,58.1,30.07,North,1,0.0,0.0,54,0.00,CLR,,0.00,WeatherDisplay:10.37,2013-08-15 20:06:00,
2013-08-15 15:11:00,76.1,57.7,30.07,North,1,0.0,0.0,53,0.00,CLR,,0.00,WeatherDisplay:10.37,2013-08-15 20:11:00,
2013-08-15 15:16:00,76.3,57.9,30.07,North,1,0.0,0.0,53,0.00,CLR,,0.00,WeatherDisplay:10.37,2013-08-15 20:16:00,
2013-08-15 15:22:00,76.5,57.5,30.07,North,1,0.0,0.0,52,0.00,CLR,,0.00,WeatherDisplay:10.37,2013-08-15 20:22:00,
2013-08-15 15:27:00,76.6,57.7,30.07,North,1,0.0,0.0,52,0.00,CLR,,0.00,WeatherDisplay:10.37,2013-08-15 20:27:00,
2013-08-15 15:32:00,76.8,57.9,30.07,North,1,0.0,0.0,52,0.00,CLR,,0.00,WeatherDisplay:10.37,2013-08-15 20:32:00,
2013-08-15 15:37:00,76.8,57.3,30.07,North,1,0.0,0.0,51,0.00,CLR,,0.00,WeatherDisplay:10.37,2013-08-15 20:37:00,
2013-08-15 15:42:00,76.3,57.4,30.07,North,1,0.0,0.0,52,0.00,CLR,,0.00,WeatherDisplay:10.37,2013-08-15 20:42:00,
2013-08-15 15:47:00,75.9,57.0,30.07,North,1,0.0,0.0,52,0.00,CLR,,0.00,WeatherDisplay:10.37,2013-08-15 20:47:00,
2013-08-15 15:52:00,75.2,56.4,30.06,North,1,0.0,0.0,52,0.00,CLR,,0.00,WeatherDisplay:10.37,2013-08-15 20:52:00,
2013-08-15 15:57:00,74.3,56.1,30.05,North,1,0.0,0.0,53,0.00,CLR,,0.00,WeatherDisplay:10.37,2013-08-15 20:57:00,
2013-08-15 16:02:00,74.1,56.4,30.05,North,1,0.0,0.0,54,0.00,CLR,,0.00,WeatherDisplay:10.37,2013-08-15 21:02:00,
2013-08-15 16:07:00,73.2,55.6,30.05,North,1,0.0,0.0,54,0.00,CLR,,0.00,WeatherDisplay:10.37,2013-08-15 21:07:00,
2013-08-15 16:12:00,72.0,56.8,30.02,North,1,0.0,0.0,59,0.00,CLR,,0.00,WeatherDisplay:10.37,2013-08-15 21:12:00,
2013-08-15 16:17:00,70.9,56.3,30.02,North,1,0.0,0.0,60,0.00,CLR,,0.00,WeatherDisplay:10.37,2013-08-15 21:17:00,
2013-08-15 16:22:00,70.0,55.9,30.01,North,1,0.0,0.0,61,0.00,CLR,,0.00,WeatherDisplay:10.37,2013-08-15 21:22:00,
2013-08-15 16:28:00,69.3,55.7,30.01,North,1,0.0,0.0,62,0.00,CLR,,0.00,WeatherDisplay:10.37,2013-08-15 21:28:00,
2013-08-15 16:34:00,68.7,56.0,29.99,North,1,0.0,0.0,64,0.00,CLR,,0.00,WeatherDisplay:10.37,2013-08-15 21:34:00,
2013-08-15 16:39:00,68.7,56.5,30.00,North,1,0.0,0.0,65,0.00,CLR,,0.00,WeatherDisplay:10.37,2013-08-15 21:39:00,
2013-08-15 16:44:00,69.1,57.2,29.99,North,1,0.0,0.0,66,0.00,CLR,,0.00,WeatherDisplay:10.37,2013-08-15 21:44:00,
2013-08-15 16:49:00,69.6,57.8,29.99,North,1,0.0,0.0,66,0.00,CLR,,0.00,WeatherDisplay:10.37,2013-08-15 21:49:00,
2013-08-15 16:54:00,70.2,57.8,30.00,North,1,0.0,0.0,65,0.00,CLR,,0.00,WeatherDisplay:10.37,2013-08-15 21:54:00,
2013-08-15 16:59:00,71.1,58.7,30.00,North,1,0.0,0.0,65,0.00,CLR,,0.00,WeatherDisplay:10.37,2013-08-15 21:59:00,
2013-08-15 17:04:00,71.8,58.5,30.00,North,1,0.0,0.0,63,0.00,CLR,,0.00,WeatherDisplay:10.37,2013-08-15 22:04:00,
2013-08-15 17:09:00,72.3,59.0,30.01,North,1,0.0,0.0,63,0.00,CLR,,0.00,WeatherDisplay:10.37,2013-08-15 22:09:00,
2013-08-15 17:14:00,72.7,58.5,30.01,North,1,0.0,0.0,61,0.00,CLR,,0.00,WeatherDisplay:10.37,2013-08-15 22:14:00,
2013-08-15 17:19:00,72.7,58.5,30.01,North,1,0.0,0.0,61,0.00,CLR,,0.00,WeatherDisplay:10.37,2013-08-15 22:19:00,
2013-08-15 17:24:00,72.9,58.6,30.01,North,1,0.0,0.0,61,0.00,CLR,,0.00,WeatherDisplay:10.37,2013-08-15 22:24:00,
2013-08-15 17:29:00,73.2,59.0,30.01,North,1,0.0,0.0,61,0.00,CLR,,0.00,WeatherDisplay:10.37,2013-08-15 22:29:00,
2013-08-15 17:34:00,73.8,59.0,30.01,North,1,0.0,0.0,60,0.00,CLR,,0.00,WeatherDisplay:10.37,2013-08-15 22:34:00,
2013-08-15 17:39:00,73.8,58.5,30.01,North,1,0.0,0.0,59,0.00,CLR,,0.00,WeatherDisplay:10.37,2013-08-15 22:39:00,
2013-08-15 17:45:00,73.8,58.5,30.01,North,1,0.0,0.0,59,0.00,CLR,,0.00,WeatherDisplay:10.37,2013-08-15 22:45:00,
2013-08-15 17:50:00,73.8,58.1,30.01,North,1,0.0,0.0,58,0.00,CLR,,0.00,WeatherDisplay:10.37,2013-08-15 22:50:00,
2013-08-15 17:55:00,73.8,57.6,30.01,North,1,0.0,0.0,57,0.00,CLR,,0.00,WeatherDisplay:10.37,2013-08-15 22:55:00,
2013-08-15 18:00:00,73.6,57.4,30.01,North,1,0.0,0.0,57,0.00,CLR,,0.00,WeatherDisplay:10.37,2013-08-15 23:00:00,
2013-08-15 18:06:00,73.6,57.4,30.02,North,1,0.0,0.0,57,0.00,CLR,,0.00,WeatherDisplay:10.37,2013-08-15 23:06:00,
2013-08-15 18:11:00,73.2,57.1,30.01,North,1,0.0,0.0,57,0.00,CLR,,0.00,WeatherDisplay:10.37,2013-08-15 23:11:00,
2013-08-15 18:16:00,72.9,57.2,30.01,North,1,0.0,0.0,58,0.00,CLR,,0.00,WeatherDisplay:10.37,2013-08-15 23:16:00,
2013-08-15 18:21:00,72.7,57.0,30.01,North,1,0.0,0.0,58,0.00,CLR,,0.00,WeatherDisplay:10.37,2013-08-15 23:21:00,
2013-08-15 18:26:00,72.5,56.9,30.00,North,1,0.0,0.0,58,0.00,CLR,,0.00,WeatherDisplay:10.37,2013-08-15 23:26:00,
2013-08-15 18:31:00,72.5,56.9,30.00,North,1,0.0,0.0,58,0.00,CLR,,0.00,WeatherDisplay:10.37,2013-08-15 23:31:00,
2013-08-15 18:36:00,72.3,57.2,30.01,North,1,0.0,0.0,59,0.00,CLR,,0.00,WeatherDisplay:10.37,2013-08-15 23:36:00,
2013-08-15 18:41:00,72.3,57.7,30.02,North,1,0.0,0.0,60,0.00,CLR,,0.00,WeatherDisplay:10.37,2013-08-15 23:41:00,
2013-08-15 18:46:00,72.1,57.5,30.03,North,1,0.0,0.0,60,0.00,CLR,,0.00,WeatherDisplay:10.37,2013-08-15 23:46:00,
2013-08-15 18:51:00,72.0,57.8,30.03,North,1,0.0,0.0,61,0.00,CLR,,0.00,WeatherDisplay:10.37,2013-08-15 23:51:00,
2013-08-15 18:56:00,71.8,57.6,30.03,North,1,0.0,0.0,61,0.00,CLR,,0.00,WeatherDisplay:10.37,2013-08-15 23:56:00,
2013-08-15 19:01:00,71.6,57.9,30.03,North,1,0.0,0.0,62,0.00,CLR,,0.00,WeatherDisplay:10.37,2013-08-16 00:01:00,
2013-08-15 19:06:00,71.4,58.2,30.03,North,1,0.0,0.0,63,0.00,CLR,,0.00,WeatherDisplay:10.37,2013-08-16 00:06:00,
2013-08-15 19:11:00,71.2,58.0,30.02,North,1,0.0,0.0,63,0.00,CLR,,0.00,WeatherDisplay:10.37,2013-08-16 00:11:00,
2013-08-15 19:16:00,71.1,57.8,30.02,North,1,0.0,0.0,63,0.00,CLR,,0.00,WeatherDisplay:10.37,2013-08-16 00:16:00,
2013-08-15 19:21:00,70.7,57.9,30.02,North,1,0.0,0.0,64,0.00,CLR,,0.00,WeatherDisplay:10.37,2013-08-16 00:21:00,
2013-08-15 19:26:00,70.5,57.8,30.02,North,1,0.0,0.0,64,0.00,CLR,,0.00,WeatherDisplay:10.37,2013-08-16 00:26:00,
2013-08-15 19:31:00,70.2,57.4,30.02,North,1,0.0,0.0,64,0.00,CLR,,0.00,WeatherDisplay:10.37,2013-08-16 00:31:00,
2013-08-15 19:37:00,70.2,57.8,30.02,North,1,0.0,0.0,65,0.00,CLR,,0.00,WeatherDisplay:10.37,2013-08-16 00:37:00,
2013-08-15 19:42:00,70.0,57.7,30.02,North,1,0.0,0.0,65,0.00,CLR,,0.00,WeatherDisplay:10.37,2013-08-16 00:42:00,
2013-08-15 19:47:00,69.4,57.2,30.03,North,1,0.0,0.0,65,0.00,CLR,,0.00,WeatherDisplay:10.37,2013-08-16 00:47:00,
2013-08-15 19:52:00,69.3,57.0,30.03,North,1,0.0,0.0,65,0.00,CLR,,0.00,WeatherDisplay:10.37,2013-08-16 00:52:00,
2013-08-15 19:57:00,68.7,56.9,30.03,North,1,0.0,0.0,66,0.00,CLR,,0.00,WeatherDisplay:10.37,2013-08-16 00:57:00,
2013-08-15 20:02:00,68.7,56.9,30.04,North,1,0.0,0.0,66,0.00,CLR,,0.00,WeatherDisplay:10.37,2013-08-16 01:02:00,
2013-08-15 20:07:00,68.4,56.6,30.04,North,1,0.0,0.0,66,0.00,CLR,,0.00,WeatherDisplay:10.37,2013-08-16 01:07:00,
2013-08-15 20:12:00,68.2,56.4,30.04,North,1,0.0,0.0,66,0.00,CLR,,0.00,WeatherDisplay:10.37,2013-08-16 01:12:00,
2013-08-15 20:18:00,68.0,56.2,30.04,North,1,0.0,0.0,66,0.00,CLR,,0.00,WeatherDisplay:10.37,2013-08-16 01:18:00,
2013-08-15 20:23:00,67.6,56.3,30.04,North,1,0.0,0.0,67,0.00,CLR,,0.00,WeatherDisplay:10.37,2013-08-16 01:23:00,
2013-08-15 20:28:00,67.5,56.1,30.04,North,1,0.0,0.0,67,0.00,CLR,,0.00,WeatherDisplay:10.37,2013-08-16 01:28:00,
2013-08-15 20:33:00,67.3,55.9,30.04,North,1,0.0,0.0,67,0.00,CLR,,0.00,WeatherDisplay:10.37,2013-08-16 01:33:00,
2013-08-15 20:39:00,67.1,55.8,30.04,North,1,0.0,0.0,67,0.00,CLR,,0.00,WeatherDisplay:10.37,2013-08-16 01:39:00,
2013-08-15 20:44:00,66.9,56.0,30.04,North,1,0.0,0.0,68,0.00,CLR,,0.00,WeatherDisplay:10.37,2013-08-16 01:44:00,
2013-08-15 20:49:00,66.6,55.7,30.04,North,1,0.0,0.0,68,0.00,CLR,,0.00,WeatherDisplay:10.37,2013-08-16 01:49:00,
2013-08-15 20:54:00,66.6,55.7,30.04,North,1,0.0,0.0,68,0.00,CLR,,0.00,WeatherDisplay:10.37,2013-08-16 01:54:00,
2013-08-15 20:59:00,66.6,55.7,30.04,North,1,0.0,0.0,68,0.00,CLR,,0.00,WeatherDisplay:10.37,2013-08-16 01:59:00,
2013-08-15 21:04:00,66.0,55.2,30.04,North,1,0.0,0.0,68,0.00,CLR,,0.00,WeatherDisplay:10.37,2013-08-16 02:04:00,
2013-08-15 21:09:00,66.0,55.2,30.05,North,1,0.0,0.0,68,0.00,CLR,,0.00,WeatherDisplay:10.37,2013-08-16 02:09:00,
2013-08-15 21:14:00,65.8,55.0,30.04,North,1,0.0,0.0,68,0.00,CLR,,0.00,WeatherDisplay:10.37,2013-08-16 02:14:00,
2013-08-15 21:19:00,65.8,55.0,30.04,North,1,0.0,0.0,68,0.00,CLR,,0.00,WeatherDisplay:10.37,2013-08-16 02:19:00,
2013-08-15 21:24:00,65.7,54.4,30.05,North,1,0.0,0.0,67,0.00,CLR,,0.00,WeatherDisplay:10.37,2013-08-16 02:24:00,
2013-08-15 21:29:00,65.7,54.4,30.05,North,1,0.0,0.0,67,0.00,CLR,,0.00,WeatherDisplay:10.37,2013-08-16 02:29:00,
2013-08-15 21:34:00,65.7,54.4,30.05,North,1,0.0,0.0,67,0.00,CLR,,0.00,WeatherDisplay:10.37,2013-08-16 02:34:00,
2013-08-15 21:39:00,65.7,54.4,30.05,North,1,0.0,0.0,67,0.00,CLR,,0.00,WeatherDisplay:10.37,2013-08-16 02:39:00,
2013-08-15 21:44:00,65.5,54.2,30.06,North,1,0.0,0.0,67,0.00,CLR,,0.00,WeatherDisplay:10.37,2013-08-16 02:44:00,
2013-08-15 21:49:00,65.5,54.2,30.05,North,1,0.0,0.0,67,0.00,CLR,,0.00,WeatherDisplay:10.37,2013-08-16 02:49:00,
2013-08-15 21:54:00,65.5,54.2,30.05,North,1,0.0,0.0,67,0.00,CLR,,0.00,WeatherDisplay:10.37,2013-08-16 02:54:00,
2013-08-15 21:59:00,65.5,54.2,30.05,North,1,0.0,0.0,67,0.00,CLR,,0.00,WeatherDisplay:10.37,2013-08-16 02:59:00,
2013-08-15 22:04:00,65.5,54.2,30.05,North,1,0.0,0.0,67,0.00,CLR,,0.00,WeatherDisplay:10.37,2013-08-16 03:04:00,
2013-08-15 22:09:00,65.3,54.1,30.05,North,1,0.0,0.0,67,0.00,CLR,,0.00,WeatherDisplay:10.37,2013-08-16 03:09:00,
2013-08-15 22:14:00,65.3,54.1,30.05,North,1,0.0,0.0,67,0.00,CLR,,0.00,WeatherDisplay:10.37,2013-08-16 03:14:00,
2013-08-15 22:19:00,65.1,53.9,30.05,North,1,0.0,0.0,67,0.00,CLR,,0.00,WeatherDisplay:10.37,2013-08-16 03:19:00,
2013-08-15 22:24:00,64.9,53.7,30.05,North,1,0.0,0.0,67,0.00,CLR,,0.00,WeatherDisplay:10.37,2013-08-16 03:24:00,
2013-08-15 22:29:00,64.8,53.5,30.04,North,1,0.0,0.0,67,0.00,CLR,,0.00,WeatherDisplay:10.37,2013-08-16 03:29:00,
2013-08-15 22:34:00,64.8,53.5,30.05,North,1,0.0,0.0,67,0.00,CLR,,0.00,WeatherDisplay:10.37,2013-08-16 03:34:00,
2013-08-15 22:39:00,64.6,53.4,30.04,North,1,0.0,0.0,67,0.00,CLR,,0.00,WeatherDisplay:10.37,2013-08-16 03:39:00,
2013-08-15 22:44:00,64.6,53.8,30.04,North,1,0.0,0.0,68,0.00,CLR,,0.00,WeatherDisplay:10.37,2013-08-16 03:44:00,
2013-08-15 22:49:00,64.6,53.8,30.05,North,1,0.0,0.0,68,0.00,CLR,,0.00,WeatherDisplay:10.37,2013-08-16 03:49:00,
2013-08-15 22:54:00,64.6,53.8,30.05,North,1,0.0,0.0,68,0.00,CLR,,0.00,WeatherDisplay:10.37,2013-08-16 03:54:00,
2013-08-15 22:59:00,64.4,53.6,30.05,North,1,0.0,0.0,68,0.00,CLR,,0.00,WeatherDisplay:10.37,2013-08-16 03:59:00,
2013-08-15 23:01:00,64.4,53.6,30.05,North,1,0.0,0.0,68,0.00,CLR,,0.00,WeatherDisplay:10.37,2013-08-16 04:01:00,
2013-08-15 23:06:00,64.4,53.6,30.05,North,1,0.0,0.0,68,0.00,CLR,,0.00,WeatherDisplay:10.37,2013-08-16 04:06:00,
2013-08-15 23:11:00,64.4,53.6,30.05,North,1,0.0,0.0,68,0.00,CLR,,0.00,WeatherDisplay:10.37,2013-08-16 04:11:00,
2013-08-15 23:16:00,64.4,53.6,30.05,North,1,0.0,0.0,68,0.00,CLR,,0.00,WeatherDisplay:10.37,2013-08-16 04:16:00,
2013-08-15 23:21:00,64.2,53.4,30.05,North,1,0.0,0.0,68,0.00,CLR,,0.00,WeatherDisplay:10.37,2013-08-16 04:21:00,
2013-08-15 23:26:00,64.2,53.4,30.05,North,1,0.0,0.0,68,0.00,CLR,,0.00,WeatherDisplay:10.37,2013-08-16 04:26:00,
2013-08-15 23:31:00,64.0,53.3,30.06,North,1,0.0,0.0,68,0.00,CLR,,0.00,WeatherDisplay:10.37,2013-08-16 04:31:00,
2013-08-15 23:36:00,64.0,53.3,30.06,North,1,0.0,0.0,68,0.00,CLR,,0.00,WeatherDisplay:10.37,2013-08-16 04:36:00,
2013-08-15 23:41:00,63.9,53.1,30.06,North,1,0.0,0.0,68,0.00,CLR,,0.00,WeatherDisplay:10.37,2013-08-16 04:41:00,
2013-08-15 23:46:00,63.9,53.1,30.06,North,1,0.0,0.0,68,0.00,CLR,,0.00,WeatherDisplay:10.37,2013-08-16 04:46:00,
2013-08-15 23:51:00,63.9,53.5,30.06,North,1,0.0,0.0,69,0.00,CLR,,0.00,WeatherDisplay:10.37,2013-08-16 04:51:00,
2013-08-15 23:56:00,63.7,53.3,30.07,North,1,0.0,0.0,69,0.00,CLR,,0.00,WeatherDisplay:10.37,2013-08-16 04:56:00,